Total_Precipitation_Accumulation
0.44 0.23 0.37 0.38 0.36 0.39 0.50 0.59 0.69 0.69 0.69 0.66 0.51 0.40 0.38 0.37 0.36 0.32 0.27 0.26 0.35 0.38 0.36 0.32 0.32 0.31 0.29 0.30 0.33 0.37 0.42 0.48 0.50 0.54 0.58 0.57 0.49 0.51 0.66 0.82 0.89 1.14 0.75
0.38 0.26 0.42 0.49 0.43 0.39 0.46 0.55 0.64 0.69 0.78 0.68 0.52 0.45 0.42 0.39 0.36 0.32 0.23 0.21 0.25 0.29 0.27 0.30 0.34 0.33 0.35 0.37 0.43 0.51 0.48 0.45 0.56 0.62 0.72 0.73 0.64 0.59 0.58 0.74 0.88 1.06 0.76
0.34 0.28 0.36 0.52 0.52 0.47 0.50 0.58 0.67 0.73 0.83 0.72 0.62 0.55 0.46 0.39 0.37 0.36 0.28 0.26 0.28 0.22 0.19 0.26 0.39 0.42 0.45 0.47 0.54 0.60 0.55 0.49 0.59 0.74 1.03 1.49 1.00 0.65 0.62 0.64 0.75 0.69 0.73
0.40 0.36 0.46 0.60 0.56 0.58 0.62 0.65 0.72 0.79 0.89 0.81 0.67 0.56 0.47 0.44 0.43 0.41 0.51 0.55 0.41 0.24 0.20 0.26 0.40 0.42 0.41 0.47 0.56 0.55 0.50 0.50 0.61 0.73 1.16 1.60 1.33 0.75 0.70 0.74 0.83 0.71 0.70
0.42 0.45 0.63 0.73 0.65 0.64 0.71 0.81 0.84 0.90 0.92 0.84 0.68 0.51 0.49 0.54 0.62 0.72 0.75 0.61 0.41 0.30 0.27 0.30 0.39 0.41 0.36 0.35 0.46 0.50 0.50 0.56 0.68 0.78 1.21 1.53 1.57 1.00 0.77 0.76 0.80 0.72 0.75
0.44 0.40 0.53 0.69 0.68 0.68 0.76 0.88 0.87 0.90 0.96 0.91 0.73 0.58 0.54 0.57 0.61 0.69 0.74 0.62 0.44 0.35 0.31 0.33 0.39 0.42 0.39 0.34 0.39 0.46 0.50 0.60 0.64 0.87 1.22 1.39 1.54 0.97 0.70 0.76 0.86 0.84 0.82
0.46 0.40 0.44 0.58 0.59 0.63 0.78 0.90 0.92 0.96 0.99 0.94 0.75 0.67 0.67 0.64 0.62 0.68 0.69 0.64 0.48 0.39 0.36 0.38 0.41 0.42 0.41 0.37 0.36 0.38 0.44 0.44 0.51 0.83 1.10 1.33 1.26 0.86 0.68 0.82 0.94 0.88 0.89
0.58 0.48 0.43 0.56 0.61 0.62 0.70 0.79 0.87 0.93 0.98 0.93 0.75 0.69 0.69 0.69 0.65 0.65 0.67 0.66 0.56 0.52 0.49 0.47 0.44 0.43 0.42 0.39 0.36 0.38 0.40 0.35 0.40 0.64 0.85 1.14 1.15 0.91 0.75 0.82 0.97 0.97 1.00
0.66 0.60 0.53 0.54 0.60 0.70 0.79 0.84 0.86 0.90 0.94 0.98 0.86 0.78 0.77 0.69 0.60 0.57 0.58 0.59 0.60 0.63 0.58 0.53 0.48 0.43 0.42 0.41 0.36 0.40 0.40 0.33 0.39 0.57 0.59 0.90 0.97 0.88 0.73 0.73 0.85 0.92 1.02
0.64 0.63 0.58 0.60 0.68 0.68 0.74 0.93 0.99 1.02 1.05 1.09 0.96 0.84 0.80 0.66 0.57 0.57 0.51 0.53 0.59 0.69 0.74 0.66 0.57 0.50 0.48 0.48 0.41 0.38 0.41 0.32 0.37 0.44 0.55 0.63 0.81 0.78 0.65 0.61 0.65 0.73 0.80
0.59 0.58 0.58 0.61 0.73 0.78 0.76 0.86 1.13 1.16 1.19 1.16 1.03 0.93 0.82 0.63 0.55 0.56 0.51 0.66 0.66 0.69 0.75 0.77 0.73 0.63 0.55 0.49 0.44 0.37 0.30 0.31 0.42 0.45 0.50 0.54 0.71 0.71 0.66 0.58 0.59 0.60 0.65
0.61 0.56 0.55 0.54 0.60 0.69 0.74 0.85 1.01 1.00 1.01 1.00 1.15 1.06 0.93 0.88 0.76 0.48 0.54 0.73 0.85 0.87 0.82 0.76 0.79 0.63 0.48 0.37 0.40 0.33 0.22 0.28 0.38 0.41 0.39 0.55 0.69 0.63 0.62 0.57 0.52 0.55 0.58
0.58 0.53 0.47 0.44 0.44 0.50 0.63 0.80 0.90 1.01 1.11 1.07 1.03 1.03 1.01 0.89 0.69 0.57 0.61 0.62 0.67 0.72 0.64 0.65 0.61 0.48 0.39 0.37 0.37 0.27 0.23 0.28 0.35 0.40 0.44 0.66 0.79 0.73 0.59 0.53 0.47 0.46 0.49
0.50 0.52 0.46 0.36 0.36 0.38 0.46 0.55 0.66 0.80 0.92 0.95 0.81 0.77 0.85 0.87 0.75 0.62 0.62 0.61 0.61 0.64 0.71 0.74 0.72 0.61 0.51 0.45 0.42 0.39 0.38 0.39 0.41 0.47 0.56 0.70 0.93 0.80 0.64 0.54 0.48 0.46 0.47
0.47 0.53 0.49 0.41 0.39 0.37 0.41 0.43 0.44 0.63 0.80 0.91 0.92 0.80 0.77 0.79 0.77 0.70 0.58 0.60 0.55 0.57 0.63 0.66 0.67 0.66 0.66 0.60 0.57 0.54 0.51 0.48 0.46 0.44 0.57 0.75 1.05 1.15 0.92 0.72 0.56 0.48 0.50
0.44 0.53 0.53 0.51 0.51 0.46 0.40 0.40 0.43 0.51 0.63 0.72 0.87 0.88 0.82 0.75 0.71 0.73 0.68 0.69 0.69 0.66 0.66 0.65 0.62 0.71 0.73 0.66 0.59 0.55 0.51 0.43 0.42 0.49 0.60 0.74 0.79 0.92 1.09 1.01 0.83 0.69 0.59
0.42 0.45 0.45 0.47 0.54 0.54 0.52 0.50 0.50 0.59 0.62 0.69 0.76 0.77 0.84 0.74 0.67 0.73 0.76 0.76 0.76 0.77 0.77 0.77 0.75 0.79 0.75 0.71 0.67 0.56 0.47 0.40 0.39 0.47 0.51 0.61 0.53 0.47 0.69 0.93 0.98 0.88 0.79
0.37 0.37 0.42 0.41 0.48 0.56 0.61 0.64 0.69 0.72 0.76 0.83 0.80 0.77 0.77 0.73 0.70 0.79 0.80 0.82 0.88 0.80 0.78 0.83 0.88 0.90 0.86 0.82 0.79 0.65 0.47 0.45 0.43 0.45 0.50 0.52 0.51 0.38 0.41 0.48 0.56 0.67 0.83
0.34 0.36 0.40 0.44 0.49 0.55 0.60 0.71 0.81 0.89 0.98 1.12 1.09 1.05 0.99 0.87 0.88 0.95 0.98 1.00 1.02 1.03 0.95 0.84 0.87 0.93 0.98 0.95 0.83 0.73 0.58 0.53 0.53 0.50 0.58 0.56 0.52 0.42 0.44 0.36 0.32 0.34 0.45
0.34 0.36 0.40 0.47 0.55 0.65 0.80 1.02 1.26 1.34 1.52 1.74 1.69 1.54 1.35 1.19 1.15 1.25 1.22 1.18 1.23 1.30 1.30 1.09 1.12 1.07 1.00 1.02 0.90 0.82 0.75 0.67 0.66 0.63 0.62 0.63 0.65 0.53 0.49 0.42 0.34 0.23 0.25
0.24 0.28 0.35 0.40 0.50 0.62 0.84 1.17 1.60 1.83 1.96 1.98 2.00 1.90 1.69 1.47 1.48 1.64 1.59 1.57 1.56 1.52 1.48 1.41 1.51 1.45 1.20 1.09 1.19 1.13 0.99 0.80 0.74 0.68 0.62 0.65 0.73 0.72 0.66 0.57 0.48 0.35 0.25
0.15 0.17 0.27 0.33 0.42 0.56 0.85 1.17 1.52 1.88 1.97 1.99 2.01 1.97 1.83 1.71 1.71 1.75 1.93 2.03 1.99 2.06 2.03 1.83 1.93 1.93 1.61 1.37 1.50 1.70 1.42 1.21 0.82 0.69 0.69 0.65 0.70 0.79 0.85 0.72 0.58 0.48 0.41
0.11 0.12 0.18 0.24 0.39 0.67 1.01 1.33 1.53 1.82 1.95 2.02 1.98 1.99 2.01 1.97 1.87 1.89 1.99 2.15 2.16 2.22 2.28 2.33 2.26 2.31 2.09 1.73 1.61 1.79 1.60 1.45 1.23 0.82 0.73 0.76 0.80 0.87 0.90 0.90 0.78 0.62 0.57
0.09 0.11 0.14 0.20 0.40 0.74 1.08 1.34 1.59 1.94 2.05 2.03 2.07 2.06 2.08 2.10 2.06 2.13 2.14 2.24 2.26 2.27 2.34 2.43 2.38 2.47 2.49 2.12 1.86 1.63 1.43 1.37 1.40 1.17 0.91 0.80 0.84 0.89 0.95 0.96 0.89 0.79 0.72
0.10 0.13 0.20 0.34 0.52 0.78 0.99 1.24 1.60 1.86 1.99 2.14 2.09 2.07 2.08 2.15 2.17 2.19 2.25 2.40 2.38 2.34 2.32 2.51 2.55 2.61 2.53 2.44 2.28 2.09 1.93 1.63 1.26 1.29 1.25 1.05 0.89 0.78 0.85 0.96 0.99 0.95 0.87
0.18 0.24 0.33 0.49 0.64 0.85 1.02 1.22 1.41 1.67 1.82 1.97 2.07 2.02 2.03 2.09 2.19 2.09 2.01 2.14 2.19 2.22 2.22 2.38 2.52 2.62 2.58 2.62 2.51 2.22 2.12 1.95 1.57 1.48 1.33 1.20 1.12 0.91 0.84 0.85 0.88 0.89 0.91